Time,TemperatureF,DewpointF,PressureIn,WindDirection,WindDirectionDegrees,WindSpeedMPH,WindSpeedGustMPH,Humidity,HourlyPrecipIn,Conditions,Clouds,dailyrainin,SoftwareType,DateUTC
2013-02-13 00:02:00,34.0,28.0,29.78,WNW,298,7.0,14.0,78,0.00,,,0.04,,2013-02-13 05:02:00,
2013-02-13 00:12:00,34.0,28.0,29.77,NW,316,5.0,15.0,78,0.00,,,0.04,,2013-02-13 05:12:00,
2013-02-13 00:22:00,34.0,28.0,29.77,NW,316,5.0,15.0,78,0.00,,,0.04,,2013-02-13 05:22:00,
2013-02-13 00:32:00,34.0,28.0,29.76,WNW,294,9.0,19.0,77,0.00,,,0.04,,2013-02-13 05:32:00,
2013-02-13 00:42:00,34.0,28.0,29.76,WNW,294,9.0,19.0,77,0.00,,,0.04,,2013-02-13 05:42:00,
2013-02-13 00:52:00,34.0,28.0,29.77,West,278,8.0,16.0,78,0.00,,,0.04,,2013-02-13 05:52:00,
2013-02-13 01:02:00,34.0,28.0,29.77,WNW,288,8.0,20.0,77,0.00,,,0.04,,2013-02-13 06:02:00,
2013-02-13 01:11:00,33.0,27.0,29.76,NW,315,7.0,17.0,78,0.00,,,0.04,,2013-02-13 06:11:00,
2013-02-13 01:21:00,33.0,27.0,29.76,NW,315,7.0,17.0,78,0.00,,,0.04,,2013-02-13 06:21:00,
2013-02-13 01:32:00,33.0,27.0,29.76,NW,310,5.0,15.0,78,0.00,,,0.04,,2013-02-13 06:32:00,
2013-02-13 01:42:00,33.0,27.0,29.77,WNW,284,5.0,13.0,79,0.00,,,0.04,,2013-02-13 06:42:00,
2013-02-13 01:51:00,33.0,27.0,29.77,WNW,284,5.0,13.0,79,0.00,,,0.04,,2013-02-13 06:51:00,
2013-02-13 02:02:00,32.0,27.0,29.77,NW,309,6.0,12.0,80,0.00,,,0.04,,2013-02-13 07:02:00,
2013-02-13 02:11:00,33.0,27.0,29.77,West,270,8.0,17.0,79,0.00,,,0.04,,2013-02-13 07:11:00,
2013-02-13 02:22:00,33.0,27.0,29.77,West,270,8.0,17.0,79,0.00,,,0.04,,2013-02-13 07:22:00,
2013-02-13 02:32:00,33.0,27.0,29.77,West,270,8.0,17.0,79,0.00,,,0.04,,2013-02-13 07:32:00,
2013-02-13 02:42:00,33.0,27.0,29.77,West,270,8.0,17.0,79,0.00,,,0.04,,2013-02-13 07:42:00,
2013-02-13 02:51:00,32.0,26.0,29.77,NW,306,10.0,16.0,79,0.00,,,0.04,,2013-02-13 07:51:00,
2013-02-13 03:01:00,33.0,27.0,29.78,WNW,289,7.0,23.0,77,0.00,,,0.04,,2013-02-13 08:01:00,
2013-02-13 03:11:00,33.0,27.0,29.78,WNW,289,7.0,23.0,77,0.00,,,0.04,,2013-02-13 08:11:00,
2013-02-13 03:21:00,33.0,27.0,29.78,West,266,4.0,14.0,77,0.00,,,0.04,,2013-02-13 08:21:00,
2013-02-13 03:32:00,33.0,27.0,29.79,WNW,295,4.0,10.0,79,0.00,,,0.04,,2013-02-13 08:32:00,
2013-02-13 03:43:00,33.0,27.0,29.79,WNW,295,4.0,10.0,79,0.00,,,0.04,,2013-02-13 08:43:00,
2013-02-13 03:52:00,32.0,27.0,29.79,NW,316,4.0,10.0,80,0.00,,,0.04,,2013-02-13 08:52:00,
2013-02-13 04:02:00,32.0,27.0,29.79,WNW,293,3.0,13.0,80,0.00,,,0.04,,2013-02-13 09:02:00,
2013-02-13 04:11:00,32.0,27.0,29.79,WNW,293,3.0,13.0,80,0.00,,,0.04,,2013-02-13 09:11:00,
2013-02-13 04:21:00,32.0,27.0,29.80,NW,310,5.0,12.0,81,0.00,,,0.04,,2013-02-13 09:21:00,
2013-02-13 04:32:00,32.0,27.0,29.80,WNW,293,6.0,14.0,80,0.00,,,0.02,,2013-02-13 09:32:00,
2013-02-13 04:42:00,32.0,27.0,29.80,NNW,339,6.0,14.0,80,0.00,,,0.02,,2013-02-13 09:42:00,
2013-02-13 04:52:00,32.0,27.0,29.80,NNW,339,6.0,14.0,80,0.00,,,0.02,,2013-02-13 09:52:00,
2013-02-13 05:01:00,32.0,27.0,29.80,NNW,339,6.0,14.0,80,0.00,,,0.02,,2013-02-13 10:01:00,
2013-02-13 05:11:00,32.0,27.0,29.80,West,271,5.0,13.0,80,0.00,,,0.02,,2013-02-13 10:11:00,
2013-02-13 05:21:00,32.0,27.0,29.80,West,271,5.0,13.0,80,0.00,,,0.02,,2013-02-13 10:21:00,
2013-02-13 05:32:00,32.0,26.0,29.80,WNW,295,8.0,19.0,78,0.00,,,0.01,,2013-02-13 10:32:00,
2013-02-13 05:42:00,32.0,26.0,29.81,WNW,302,2.0,11.0,78,0.00,,,0.01,,2013-02-13 10:42:00,
2013-02-13 05:51:00,32.0,26.0,29.81,WNW,302,2.0,11.0,78,0.00,,,0.01,,2013-02-13 10:51:00,
2013-02-13 06:01:00,31.0,25.0,29.80,ESE,108,6.0,12.0,79,0.00,,,0.01,,2013-02-13 11:01:00,
2013-02-13 06:11:00,31.0,25.0,29.80,ESE,108,6.0,12.0,79,0.00,,,0.01,,2013-02-13 11:11:00,
2013-02-13 06:22:00,32.0,26.0,29.80,NW,312,5.0,14.0,78,0.00,,,0.01,,2013-02-13 11:22:00,
2013-02-13 06:32:00,31.0,25.0,29.81,WNW,299,5.0,14.0,78,0.00,,,0.01,,2013-02-13 11:32:00,
2013-02-13 06:42:00,31.0,25.0,29.80,NW,319,6.0,17.0,77,0.00,,,0.01,,2013-02-13 11:42:00,
2013-02-13 06:52:00,31.0,25.0,29.80,NW,319,6.0,17.0,77,0.00,,,0.01,,2013-02-13 11:52:00,
2013-02-13 07:02:00,31.0,25.0,29.80,NW,304,5.0,14.0,77,0.00,,,0.01,,2013-02-13 12:02:00,
2013-02-13 07:11:00,31.0,25.0,29.81,NW,305,8.0,14.0,77,0.00,,,0.01,,2013-02-13 12:11:00,
2013-02-13 07:22:00,31.0,25.0,29.81,NW,305,8.0,14.0,77,0.00,,,0.01,,2013-02-13 12:22:00,
2013-02-13 07:32:00,31.0,24.0,29.81,WNW,285,8.0,17.0,76,0.00,,,0.01,,2013-02-13 12:32:00,
2013-02-13 07:42:00,31.0,24.0,29.81,WSW,258,8.0,17.0,76,0.00,,,0.01,,2013-02-13 12:42:00,
2013-02-13 07:52:00,31.0,24.0,29.81,WSW,258,8.0,17.0,76,0.00,,,0.01,,2013-02-13 12:52:00,
2013-02-13 08:02:00,31.0,24.0,29.82,WNW,303,4.0,11.0,76,0.00,,,0.01,,2013-02-13 13:02:00,
2013-02-13 08:11:00,31.0,24.0,29.82,WNW,303,4.0,11.0,76,0.00,,,0.01,,2013-02-13 13:11:00,
2013-02-13 08:21:00,31.0,24.0,29.82,WNW,295,7.0,15.0,75,0.00,,,0.01,,2013-02-13 13:21:00,
2013-02-13 08:32:00,31.0,24.0,29.82,NW,318,4.0,12.0,75,0.00,,,0.01,,2013-02-13 13:32:00,
2013-02-13 08:42:00,31.0,24.0,29.83,West,269,7.0,16.0,75,0.00,,,0.01,,2013-02-13 13:42:00,
2013-02-13 08:51:00,31.0,24.0,29.83,West,269,7.0,16.0,75,0.00,,,0.01,,2013-02-13 13:51:00,
2013-02-13 09:01:00,32.0,25.0,29.83,NW,308,3.0,15.0,74,0.00,,,0.01,,2013-02-13 14:01:00,
2013-02-13 09:11:00,32.0,25.0,29.83,NW,308,3.0,15.0,74,0.00,,,0.01,,2013-02-13 14:11:00,
2013-02-13 09:21:00,33.0,25.0,29.83,NW,309,5.0,12.0,72,0.00,,,0.01,,2013-02-13 14:21:00,
2013-02-13 09:32:00,33.0,24.0,29.83,West,269,6.0,19.0,70,0.00,,,0.01,,2013-02-13 14:32:00,
2013-02-13 09:42:00,34.0,25.0,29.83,NNW,343,5.0,17.0,68,0.00,,,0.01,,2013-02-13 14:42:00,
2013-02-13 09:52:00,34.0,25.0,29.83,NNW,343,5.0,17.0,68,0.00,,,0.01,,2013-02-13 14:52:00,
2013-02-13 10:02:00,34.0,24.0,29.83,NNW,327,5.0,16.0,67,0.00,,,0.01,,2013-02-13 15:02:00,
2013-02-13 10:11:00,34.0,24.0,29.83,WSW,256,5.0,13.0,66,0.00,,,0.01,,2013-02-13 15:11:00,
2013-02-13 10:21:00,34.0,24.0,29.83,WSW,256,5.0,13.0,66,0.00,,,0.01,,2013-02-13 15:21:00,
2013-02-13 10:32:00,35.0,24.0,29.83,WNW,286,5.0,15.0,65,0.00,,,0.00,,2013-02-13 15:32:00,
2013-02-13 10:42:00,35.0,24.0,29.83,WNW,286,5.0,15.0,65,0.00,,,0.00,,2013-02-13 15:42:00,
2013-02-13 10:52:00,36.0,25.0,29.83,NW,310,5.0,14.0,64,0.00,,,0.00,,2013-02-13 15:52:00,
2013-02-13 11:02:00,36.0,24.0,29.83,West,276,4.0,10.0,62,0.00,,,0.00,,2013-02-13 16:02:00,
2013-02-13 11:12:00,36.0,24.0,29.83,WNW,286,2.0,11.0,62,0.00,,,0.00,,2013-02-13 16:12:00,
2013-02-13 11:21:00,36.0,24.0,29.83,WNW,286,2.0,11.0,62,0.00,,,0.00,,2013-02-13 16:21:00,
2013-02-13 11:32:00,37.0,25.0,29.82,WNW,299,2.0,9.0,61,0.00,,,0.00,,2013-02-13 16:32:00,
2013-02-13 11:42:00,37.0,25.0,29.82,WNW,299,2.0,9.0,61,0.00,,,0.00,,2013-02-13 16:42:00,
2013-02-13 11:51:00,37.0,24.0,29.81,WNW,293,6.0,12.0,58,0.00,,,0.00,,2013-02-13 16:51:00,
2013-02-13 12:02:00,38.0,24.0,29.81,North,4,5.0,11.0,57,0.00,,,0.00,,2013-02-13 17:02:00,
2013-02-13 12:11:00,38.0,24.0,29.81,North,4,5.0,11.0,57,0.00,,,0.00,,2013-02-13 17:11:00,
2013-02-13 12:21:00,38.0,24.0,29.80,NNW,339,7.0,11.0,57,0.00,,,0.00,,2013-02-13 17:21:00,
2013-02-13 12:32:00,38.0,24.0,29.80,NNE,29,4.0,11.0,57,0.00,,,0.00,,2013-02-13 17:32:00,
2013-02-13 12:42:00,38.0,24.0,29.80,NNE,29,4.0,11.0,57,0.00,,,0.00,,2013-02-13 17:42:00,
2013-02-13 12:52:00,39.0,25.0,29.79,North,354,3.0,10.0,58,0.00,,,0.00,,2013-02-13 17:52:00,
2013-02-13 13:02:00,39.0,25.0,29.79,NNW,341,5.0,11.0,56,0.00,,,0.00,,2013-02-13 18:02:00,
2013-02-13 13:11:00,39.0,25.0,29.79,NNW,341,5.0,11.0,56,0.00,,,0.00,,2013-02-13 18:11:00,
2013-02-13 13:23:00,38.0,24.0,29.79,North,354,6.0,12.0,56,0.00,,,0.00,,2013-02-13 18:23:00,
2013-02-13 13:32:00,37.0,24.0,29.79,NW,314,4.0,11.0,59,0.00,,,0.00,,2013-02-13 18:32:00,
2013-02-13 13:42:00,37.0,24.0,29.79,NW,314,4.0,11.0,59,0.00,,,0.00,,2013-02-13 18:42:00,
2013-02-13 13:52:00,37.0,24.0,29.79,West,280,2.0,8.0,60,0.00,,,0.00,,2013-02-13 18:52:00,
2013-02-13 14:01:00,38.0,23.0,29.79,WNW,287,6.0,13.0,55,0.00,,,0.00,,2013-02-13 19:01:00,
2013-02-13 14:11:00,38.0,22.0,29.79,NNW,343,6.0,13.0,53,0.00,,,0.00,,2013-02-13 19:11:00,
2013-02-13 14:21:00,38.0,22.0,29.79,NNW,343,6.0,13.0,53,0.00,,,0.00,,2013-02-13 19:21:00,
2013-02-13 14:32:00,38.0,22.0,29.79,West,270,5.0,14.0,52,0.00,,,0.00,,2013-02-13 19:32:00,
2013-02-13 14:42:00,38.0,22.0,29.79,West,270,5.0,14.0,52,0.00,,,0.00,,2013-02-13 19:42:00,
2013-02-13 14:51:00,38.0,22.0,29.80,WNW,301,5.0,10.0,53,0.00,,,0.00,,2013-02-13 19:51:00,
2013-02-13 15:02:00,38.0,22.0,29.80,NW,320,5.0,10.0,53,0.00,,,0.00,,2013-02-13 20:02:00,
2013-02-13 15:11:00,38.0,22.0,29.80,NW,320,5.0,10.0,53,0.00,,,0.00,,2013-02-13 20:11:00,
2013-02-13 15:21:00,38.0,22.0,29.80,NW,320,5.0,10.0,53,0.00,,,0.00,,2013-02-13 20:21:00,
2013-02-13 15:32:00,38.0,22.0,29.80,NW,320,5.0,10.0,53,0.00,,,0.00,,2013-02-13 20:32:00,
2013-02-13 15:42:00,37.0,21.0,29.80,WNW,301,2.0,9.0,51,0.00,,,0.00,,2013-02-13 20:42:00,
2013-02-13 15:52:00,37.0,21.0,29.80,WNW,301,2.0,9.0,51,0.00,,,0.00,,2013-02-13 20:52:00,
2013-02-13 16:02:00,37.0,21.0,29.80,WNW,289,3.0,11.0,51,0.00,,,0.00,,2013-02-13 21:02:00,
2013-02-13 16:11:00,37.0,21.0,29.80,WNW,289,3.0,11.0,51,0.00,,,0.00,,2013-02-13 21:11:00,
2013-02-13 16:21:00,37.0,21.0,29.79,NNW,331,5.0,10.0,52,0.00,,,0.00,,2013-02-13 21:21:00,
2013-02-13 16:32:00,37.0,21.0,29.79,WNW,301,4.0,10.0,53,0.00,,,0.00,,2013-02-13 21:32:00,
2013-02-13 16:42:00,37.0,21.0,29.79,WNW,301,4.0,10.0,53,0.00,,,0.00,,2013-02-13 21:42:00,
2013-02-13 16:52:00,36.0,21.0,29.79,NW,314,3.0,9.0,54,0.00,,,0.00,,2013-02-13 21:52:00,
2013-02-13 17:02:00,36.0,21.0,29.79,NW,304,3.0,7.0,55,0.00,,,0.00,,2013-02-13 22:02:00,
2013-02-13 17:11:00,36.0,21.0,29.79,NW,304,3.0,7.0,55,0.00,,,0.00,,2013-02-13 22:11:00,
2013-02-13 17:21:00,35.0,21.0,29.79,NW,306,3.0,8.0,56,0.00,,,0.00,,2013-02-13 22:21:00,
2013-02-13 17:32:00,35.0,21.0,29.79,NW,308,4.0,7.0,57,0.00,,,0.00,,2013-02-13 22:32:00,
2013-02-13 17:42:00,35.0,21.0,29.79,NW,308,4.0,7.0,57,0.00,,,0.00,,2013-02-13 22:42:00,
2013-02-13 17:51:00,34.0,21.0,29.79,NNW,332,4.0,8.0,58,0.00,,,0.00,,2013-02-13 22:51:00,
2013-02-13 18:01:00,34.0,22.0,29.79,NNW,337,1.0,10.0,60,0.00,,,0.00,,2013-02-13 23:01:00,
2013-02-13 18:11:00,34.0,22.0,29.79,NNW,337,1.0,10.0,60,0.00,,,0.00,,2013-02-13 23:11:00,
2013-02-13 18:22:00,33.0,21.0,29.79,NW,308,1.0,7.0,61,0.00,,,0.00,,2013-02-13 23:22:00,
2013-02-13 18:32:00,32.0,20.0,29.79,NW,315,1.0,4.0,62,0.00,,,0.00,,2013-02-13 23:32:00,
2013-02-13 18:42:00,32.0,20.0,29.79,NW,315,1.0,4.0,62,0.00,,,0.00,,2013-02-13 23:42:00,
2013-02-13 18:52:00,32.0,20.0,29.80,NW,317,3.0,6.0,62,0.00,,,0.00,,2013-02-13 23:52:00,
2013-02-13 19:02:00,33.0,21.0,29.82,WNW,300,3.0,8.0,61,0.00,,,0.00,,2013-02-14 00:02:00,
2013-02-13 19:11:00,33.0,21.0,29.82,WNW,300,3.0,8.0,61,0.00,,,0.00,,2013-02-14 00:11:00,
2013-02-13 19:22:00,33.0,21.0,29.81,WNW,296,2.0,9.0,60,0.00,,,0.00,,2013-02-14 00:22:00,
2013-02-13 19:32:00,33.0,21.0,29.81,WNW,295,3.0,8.0,60,0.00,,,0.00,,2013-02-14 00:32:00,
2013-02-13 19:42:00,33.0,21.0,29.81,WNW,295,3.0,8.0,60,0.00,,,0.00,,2013-02-14 00:42:00,
2013-02-13 19:52:00,33.0,21.0,29.81,NW,316,3.0,8.0,60,0.00,,,0.00,,2013-02-14 00:52:00,
2013-02-13 20:01:00,33.0,21.0,29.81,WNW,303,4.0,8.0,61,0.00,,,0.00,,2013-02-14 01:01:00,
2013-02-13 20:11:00,33.0,21.0,29.81,WNW,303,4.0,8.0,61,0.00,,,0.00,,2013-02-14 01:11:00,
2013-02-13 20:21:00,33.0,21.0,29.80,NW,314,4.0,8.0,60,0.00,,,0.00,,2013-02-14 01:21:00,
2013-02-13 20:32:00,32.0,20.0,29.81,NW,316,4.0,9.0,61,0.00,,,0.00,,2013-02-14 01:32:00,
2013-02-13 20:41:00,32.0,20.0,29.81,NW,316,4.0,9.0,61,0.00,,,0.00,,2013-02-14 01:41:00,
2013-02-13 20:51:00,32.0,20.0,29.81,NNW,327,4.0,9.0,61,0.00,,,0.00,,2013-02-14 01:51:00,
2013-02-13 21:02:00,32.0,20.0,29.81,NNW,327,4.0,9.0,61,0.00,,,0.00,,2013-02-14 02:02:00,
2013-02-13 21:11:00,32.0,20.0,29.81,NW,308,4.0,8.0,62,0.00,,,0.00,,2013-02-14 02:11:00,
2013-02-13 21:21:00,32.0,20.0,29.81,NW,308,4.0,8.0,62,0.00,,,0.00,,2013-02-14 02:21:00,
2013-02-13 21:32:00,32.0,20.0,29.81,NW,319,5.0,9.0,62,0.00,,,0.00,,2013-02-14 02:32:00,
2013-02-13 21:42:00,32.0,20.0,29.81,NW,319,5.0,9.0,62,0.00,,,0.00,,2013-02-14 02:42:00,
2013-02-13 21:51:00,32.0,20.0,29.81,NW,319,5.0,9.0,62,0.00,,,0.00,,2013-02-14 02:51:00,
2013-02-13 22:02:00,32.0,21.0,29.80,NW,306,3.0,7.0,63,0.00,,,0.00,,2013-02-14 03:02:00,
2013-02-13 22:12:00,32.0,21.0,29.81,NW,313,3.0,7.0,64,0.00,,,0.00,,2013-02-14 03:12:00,
2013-02-13 22:22:00,32.0,21.0,29.81,NW,313,3.0,7.0,64,0.00,,,0.00,,2013-02-14 03:22:00,
2013-02-13 22:32:00,32.0,21.0,29.80,WNW,303,4.0,8.0,64,0.00,,,0.00,,2013-02-14 03:32:00,
2013-02-13 22:42:00,32.0,21.0,29.80,WNW,303,4.0,8.0,64,0.00,,,0.00,,2013-02-14 03:42:00,
2013-02-13 22:51:00,31.0,21.0,29.80,North,350,3.0,8.0,65,0.00,,,0.00,,2013-02-14 03:51:00,
2013-02-13 23:01:00,31.0,21.0,29.81,NW,310,4.0,9.0,66,0.00,,,0.00,,2013-02-14 04:01:00,
2013-02-13 23:12:00,31.0,21.0,29.81,NW,310,4.0,9.0,66,0.00,,,0.00,,2013-02-14 04:12:00,
2013-02-13 23:21:00,31.0,21.0,29.81,NW,310,4.0,9.0,66,0.00,,,0.00,,2013-02-14 04:21:00,
2013-02-13 23:32:00,31.0,21.0,29.81,NW,319,3.0,8.0,66,0.00,,,0.00,,2013-02-14 04:32:00,
2013-02-13 23:42:00,31.0,21.0,29.81,NW,319,3.0,8.0,66,0.00,,,0.00,,2013-02-14 04:42:00,
2013-02-13 23:52:00,31.0,21.0,29.81,NW,319,3.0,8.0,66,0.00,,,0.00,,2013-02-14 04:52:00,